This is the latest recevied weather packets stored in our database for station/object KY4OP-13. If no packets are shown the sender has not sent any weather packets the latest 10 day(s).
| Time | Temp. | Humidity | Pressure | Rain* | Wind** | Luminosity | Snow |
|---|---|---|---|---|---|---|---|
| 1777586291 | 17.78° C | 37% | 1012.4 hPa | 0 mm | - | - | - |
| 1777585989 | 17.78° C | 35% | 1012.6 hPa | 0 mm | - | - | - |
| 1777585684 | 17.78° C | 36% | 1012.4 hPa | 0 mm | - | - | - |
| 1777585379 | 18.33° C | 38% | 1012.2 hPa | 0 mm | - | - | - |
| 1777585074 | 18.89° C | 36% | 1012.2 hPa | 0 mm | - | - | - |
| 1777584770 | 18.33° C | 36% | 1012 hPa | 0 mm | - | - | - |
| 1777584468 | 18.89° C | 37% | 1012.1 hPa | 0 mm | - | - | - |
| 1777584165 | 18.33° C | 36% | 1012 hPa | 0 mm | - | - | - |
| 1777583864 | 18.89° C | 37% | 1012.1 hPa | 0 mm | - | - | - |
| 1777583560 | 18.33° C | 36% | 1011.8 hPa | 0 mm | - | - | - |
| 1777583259 | 18.33° C | 36% | 1011.8 hPa | 0 mm | - | - | - |
| 1777582959 | 18.33° C | 37% | 1011.8 hPa | 0 mm | - | - | - |
| 1777582657 | 18.89° C | 36% | 1011.8 hPa | 0 mm | - | - | - |
| 1777582352 | 19.44° C | 38% | 1011.6 hPa | 0 mm | - | - | - |
| 1777582050 | 19.44° C | 37% | 1011.6 hPa | 0 mm | - | - | - |
| 1777581745 | 20° C | 38% | 1011.7 hPa | 0 mm | - | - | - |
| 1777581443 | 19.44° C | 39% | 1011.5 hPa | 0 mm | - | - | - |
| 1777581139 | 19.44° C | 36% | 1011.6 hPa | 0 mm | - | - | - |
| 1777580834 | 19.44° C | 35% | 1011.5 hPa | 0 mm | - | - | - |
| 1777580529 | 19.44° C | 40% | 1011.4 hPa | 0 mm | - | - | - |
| 1777580223 | 19.44° C | 36% | 1011.4 hPa | 0 mm | - | - | - |
| 1777579921 | 20° C | 36% | 1011.1 hPa | 0 mm | - | - | - |
| 1777579616 | 19.44° C | 37% | 1011.3 hPa | 0 mm | - | - | - |
| 1777579310 | 20° C | 38% | 1011.4 hPa | 0 mm | - | - | - |
| 1777579006 | 20° C | 37% | 1011.1 hPa | 0 mm | - | - | - |
* Rain latest hour (hover to see other rain measurements)
** Current wind speed in m/s (hover to see current wind gust speed)